Regional Weather Roundup
Issued by NWS Upton, NY

Current Version | Previous Version | Graphics & Text | Print | Product List | Glossary Off
Versions: 1 2 3 4 5 6 7 8 9 10 11 12 13 14 15 16 17 18 19 20 21 22 23 24 25 26 27 28 29 30 31 32 33 34 35 36 37 38 39 40 41 42 43 44 45 46 47 48 49 50

000
ASUS41 KOKX 272205
RWROKX

REGIONAL WEATHER ROUNDUP
NATIONAL WEATHER SERVICE NEW YORK NY
500 PM EST THU NOV 27 2014

NOTE: "FAIR" INDICATES FEW OR NO CLOUDS BELOW 12,000 FEET WITH NO
SIGNIFICANT WEATHER AND/OR OBSTRUCTIONS TO VISIBILITY.

NYZ071-072-176-178-NJZ106-104-272300-
NEW YORK CITY METRO AREA


CITY           SKY/WX    TMP DP  RH WIND       PRES   REMARKS
CENTRAL PARK   CLOUDY    37  29  72 VRB7      30.03R WCI  32
LAGUARDIA APRT CLOUDY    38  31  76 NW14      30.01R WCI  30
KENNEDY INTL   CLOUDY    38  30  73 NW10      30.02R WCI  31
NEWARK/LIBERTY MOCLDY    36  28  75 NW8       30.02R WCI  29
BRNX BOT. GARD   N/A     36  32  87 W2        30.00R
TETERBORO      CLOUDY    37  29  72 NW8       30.01R WCI  31
$$

NYZ177-179-078>081-272300-
LONG ISLAND NEW YORK

CITY           SKY/WX    TMP DP  RH WIND       PRES   REMARKS
FARMINGDALE    CLOUDY    39  30  70 NW5       30.00R
ISLIP          CLOUDY    38  30  73 NW8       29.98R WCI  32
SHIRLEY        CLOUDY    36  31  82 NW6       30.00R WCI  31
WESTHAMPTON    CLOUDY    37  32  82 NW6       30.00R WCI  32
MONTAUK POINT    N/A     40  33  76 NW9       29.97R WCI  34
$$

NYZ052-065-067-272300-
HUDSON VALLEY

CITY           SKY/WX    TMP DP  RH WIND       PRES   REMARKS
WHITE PLAINS   MOCLDY    34  29  82 NW7       29.98R WCI  28
NEWBURGH       CLOUDY    32  30  93 CALM      30.00R FOG
MONTGOMERY     CLOUDY    33  30  88 CALM      29.99R
POUGHKEEPSIE   CLOUDY    33  29  85 NW6       30.01R WCI  28
ALBANY         LGT SNOW  30  26  85 CALM      30.03R FOG
$$

NJZ001-105-106-008-010-013-015-019>022-104-272300-
NEW JERSEY

CITY           SKY/WX    TMP DP  RH WIND       PRES   REMARKS
NEWARK/LIBERTY MOCLDY    36  28  75 NW8       30.02R WCI  29
TETERBORO      CLOUDY    37  29  72 NW8       30.01R WCI  31
CALDWELL       PTCLDY    35  26  69 NW6       30.02R WCI  30
MORRISTOWN     MOCLDY    34  28  80 CALM      30.02R
SOMERVILLE     PTCLDY    34  28  79 CALM      30.01R
SUSSEX         CLOUDY    33  27  78 CALM      30.01R
ANDOVER          N/A     33  30  88 CALM      30.00S
TRENTON        CLOUDY    36  27  69 W7        30.03R WCI  30
MILLVILLE      CLEAR     38  28  67 NW10      30.05R WCI  31
ATLANTIC CITY  CLEAR     37  29  72 NW10      30.03R WCI  30
WRIGHTSTOWN    MOCLDY    34  27  75 NW6       30.01R WCI  29
TOMS RIVER     CLEAR     34  28  80 CALM      30.04R
BELMAR         MOCLDY    36  27  69 NW10      30.01R WCI  28
$$

PAZ047>061-062-071-272300-
EASTERN PENNSYLVANIA

CITY           SKY/WX    TMP DP  RH WIND       PRES   REMARKS
PHILADELPHIA   MOCLDY    39  27  62 NW10      30.07R WCI  32
ALLENTOWN      MOCLDY    35  26  69 W6        30.03R WCI  30
SCRANTON       MOCLDY    31  21  66 W13       30.01S WCI  21
$$

CTZ002-004>006-009-010-012-RIZ004-006-007-MAZ004-011-015-272300-
SOUTHERN NEW ENGLAND
 IN CT

CITY           SKY/WX    TMP DP  RH WIND       PRES   REMARKS
BRADLEY INTL   CLOUDY    35  27  72 N3        29.97S
HARTFORD       FLURRIES  34  29  82 VRB3      29.99S
DANBURY        CLOUDY    33  26  75 W5        30.00R WCI  29
WTRBRY/OXFORD  CLOUDY    30  23  74 CALM      29.98R
BRIDGEPORT     CLOUDY    36  30  79 NW5       30.00R WCI  32
MERIDEN        CLOUDY    34  29  82 CALM      29.99R
NEW HAVEN      CLOUDY    38  31  76 N5        29.99R WCI  34
CHESTER        LGT SNOW  34  32  93 N3        29.97S
GROTON         CLOUDY    36  31  82 N9        29.97R WCI  29
WILLIMANTIC    FLURRIES  35  29  78 CALM      29.98R

 IN RI

CITY           SKY/WX    TMP DP  RH WIND       PRES   REMARKS
PROVIDENCE     CLOUDY    36  30  79 NW8       29.98R WCI  30
BLOCK ISLAND   CLOUDY    39  34  81 CALM      29.95S
WESTERLY       LGT RAIN  37  33  85 N8        29.98R WCI  31

 IN MA

CITY           SKY/WX    TMP DP  RH WIND       PRES   REMARKS
BOSTON         CLOUDY    36  29  75 N8        29.98R WCI  30
WORCESTER      CLOUDY    29  25  85 N7        29.94R WCI  22
WESTFIELD      CLOUDY    33  28  81 NW3       29.98R
PROVINCETOWN   CLOUDY    39  30  70 N6        29.97R WCI  35
NANTUCKET      CLOUDY    39  33  79 NE3       29.96R
$$

ANZ330-335-338-340-345-350-353-355-272300-
COASTAL MARINE OBSERVATIONS


STATION/POSITION TIME  SKY/WX   TEMP    WIND        PRES    VSBY  WAVE
                                AIR SEA DIR/SP/G                  HT/PER
                 (UTC)          (F)     (DEG/KT/KT) (MB)    (MI)  (FT/S)
NY HARB ENTRANCE 2200            40 54  300/ 16/ 21 1016.0          4/ 9
4S FIRE IS       2200               52                N/A           4/10
20S FIRE ISLAND  2100            40 54  330/ 12/ 19 1014.8          4/10
23SW MTP         2200                                 N/A           6/10
HUDSON CANYON    2200            44 58  290/ 17/ 19 1014.9          6/11
EXECUTION ROCKS  2200            38 48  310/  8/ 12   N/A
WESTERN LI SOUND 2200            38     340/ 10/ 14   N/A           0
CENTRAL LI SOUND 2100            36 50  330/ 10/ 12   N/A           1/ 2
EASTERN LI SOUND 2100            39 52  340/ 10/ 14   N/A
ROBBINS REEF     2200            37     310/ 16/ 19 1014.9
$$


>>>>>>>>>>>>>>>>>>>>>>>>>>>> KEY <<<<<<<<<<<<<<<<<<<<<<<<<<<
>                                                          <
>     SKY/WX - SKY CONDITION/PRESENT WEATHER               <
>     TMP    - TEMPERATURE IN FAHRENHEIT                   <
>     DP     - DEWPOINT IN FAHRENHEIT                      <
>     RH     - RELATIVE HUMIDITY IN PERCENT                <
>     WIND   - DIRECTION AND SPEED IN MPH                  <
>     PRES   - MEAN SEA LEVEL PRESSURE IN INCHES OF HG     <
>     WCI    - WIND CHILL INDEX                            <
>     VSB    - VISIBILITY IN MILES                         <
>     HX     - HEAT INDEX                                  <
>     TC     - TEMPERATURE IN CELSIUS                      <
>     VRB    - VARIABLE WIND DIRECTION                     <
>                                                          <
>>>>>>>>>>>>>>>>>>>>>>>>>>>> KEY <<<<<<<<<<<<<<<<<<<<<<<<<<<





USA.gov is the U.S. government's official web portal to all federal, state and local government web resources and services.